![]() |
EMODnet Physics ERDDAP
Easier access to scientific data |
log in|
Brought to you by EMODnet Physics |
| Dataset Title: | NDBC - Collection of dew point temperature (DEWT) TimeSeries - IN SITU MultiPointTimeSeriesObservation
|
| Institution: | NDBC (Dataset ID: TS_DEWT_NDBC) |
| Information: | Summary
| License
| FGDC
| ISO 19115
| Metadata
| Background
| Subset
| Data Access Form
| Make a graph
|
| Name | Last modified | Size | Description | |
|---|---|---|---|---|
| Parent Directory | - | - | ||
| 44024_TS_DEWT_012005.nc | 26-Oct-2024 18:00 | 439162 | ||
| 44024_TS_DEWT_012006.nc | 26-Oct-2024 18:01 | 437931 | ||
| 44024_TS_DEWT_012007.nc | 26-Oct-2024 18:01 | 438848 | ||
| 44024_TS_DEWT_012008.nc | 26-Oct-2024 18:01 | 475510 | ||
| 44024_TS_DEWT_012011.nc | 26-Oct-2024 18:01 | 4256685 | ||
| 44024_TS_DEWT_012012.nc | 26-Oct-2024 18:01 | 439791 | ||
| 44024_TS_DEWT_012013.nc | 26-Oct-2024 18:01 | 433978 | ||
| 44024_TS_DEWT_012014.nc | 26-Oct-2024 18:01 | 587258 | ||
| 44024_TS_DEWT_012015.nc | 26-Oct-2024 18:01 | 469105 | ||
| 44024_TS_DEWT_012016.nc | 26-Oct-2024 18:01 | 627561 | ||
| 44024_TS_DEWT_012017.nc | 26-Oct-2024 18:01 | 3199543 | ||
| 44024_TS_DEWT_012021.nc | 26-Oct-2024 18:01 | 440145 | ||
| 44024_TS_DEWT_022005.nc | 26-Oct-2024 18:01 | 438413 | ||
| 44024_TS_DEWT_022006.nc | 26-Oct-2024 18:01 | 440211 | ||
| 44024_TS_DEWT_022007.nc | 26-Oct-2024 18:01 | 480441 | ||
| 44024_TS_DEWT_022008.nc | 26-Oct-2024 18:01 | 480460 | ||
| 44024_TS_DEWT_022011.nc | 26-Oct-2024 18:01 | 439678 | ||
| 44024_TS_DEWT_022012.nc | 26-Oct-2024 18:01 | 439043 | ||
| 44024_TS_DEWT_022013.nc | 26-Oct-2024 18:01 | 587296 | ||
| 44024_TS_DEWT_022015.nc | 26-Oct-2024 18:01 | 629914 | ||
| 44024_TS_DEWT_022016.nc | 26-Oct-2024 18:01 | 628758 | ||
| 44024_TS_DEWT_022017.nc | 26-Oct-2024 18:01 | 422155 | ||
| 44024_TS_DEWT_032005.nc | 26-Oct-2024 18:01 | 439687 | ||
| 44024_TS_DEWT_032006.nc | 26-Oct-2024 18:01 | 440069 | ||
| 44024_TS_DEWT_032007.nc | 26-Oct-2024 18:02 | 480429 | ||
| 44024_TS_DEWT_032008.nc | 26-Oct-2024 18:02 | 479209 | ||
| 44024_TS_DEWT_032011.nc | 26-Oct-2024 18:02 | 430153 | ||
| 44024_TS_DEWT_032012.nc | 26-Oct-2024 18:02 | 427871 | ||
| 44024_TS_DEWT_032013.nc | 26-Oct-2024 18:02 | 440341 | ||
| 44024_TS_DEWT_032015.nc | 26-Oct-2024 18:02 | 435130 | ||
| 44024_TS_DEWT_032016.nc | 26-Oct-2024 18:02 | 478204 | ||
| 44024_TS_DEWT_032017.nc | 26-Oct-2024 18:02 | 627350 | ||
| 44024_TS_DEWT_042005.nc | 26-Oct-2024 18:02 | 440292 | ||
| 44024_TS_DEWT_042006.nc | 26-Oct-2024 18:02 | 431733 | ||
| 44024_TS_DEWT_042007.nc | 26-Oct-2024 18:02 | 439898 | ||
| 44024_TS_DEWT_042008.nc | 26-Oct-2024 18:02 | 429028 | ||
| 44024_TS_DEWT_042011.nc | 26-Oct-2024 18:02 | 628707 | ||
| 44024_TS_DEWT_042012.nc | 26-Oct-2024 18:02 | 629810 | ||
| 44024_TS_DEWT_042013.nc | 26-Oct-2024 18:02 | 438906 | ||
| 44024_TS_DEWT_042015.nc | 26-Oct-2024 18:02 | 439457 | ||
| 44024_TS_DEWT_042016.nc | 26-Oct-2024 18:02 | 439682 | ||
| 44024_TS_DEWT_042017.nc | 26-Oct-2024 18:02 | 438389 | ||
| 44024_TS_DEWT_052005.nc | 26-Oct-2024 18:02 | 480261 | ||
| 44024_TS_DEWT_052006.nc | 26-Oct-2024 18:02 | 3001352 | ||
| 44024_TS_DEWT_052007.nc | 26-Oct-2024 18:02 | 482216 | ||
| 44024_TS_DEWT_052008.nc | 26-Oct-2024 18:02 | 438687 | ||
| 44024_TS_DEWT_052011.nc | 26-Oct-2024 18:02 | 438954 | ||
| 44024_TS_DEWT_052012.nc | 26-Oct-2024 18:02 | 587247 | ||
| 44024_TS_DEWT_052013.nc | 26-Oct-2024 18:02 | 628788 | ||
| 44024_TS_DEWT_052015.nc | 26-Oct-2024 18:03 | 3292598 | ||
| 44024_TS_DEWT_052016.nc | 26-Oct-2024 18:03 | 628876 | ||
| 44024_TS_DEWT_052017.nc | 26-Oct-2024 18:03 | 439861 | ||
| 44024_TS_DEWT_062005.nc | 26-Oct-2024 18:03 | 437628 | ||
| 44024_TS_DEWT_062006.nc | 26-Oct-2024 18:03 | 440221 | ||
| 44024_TS_DEWT_062007.nc | 26-Oct-2024 18:03 | 419474 | ||
| 44024_TS_DEWT_062008.nc | 26-Oct-2024 18:03 | 478864 | ||
| 44024_TS_DEWT_062011.nc | 26-Oct-2024 18:03 | 476905 | ||
| 44024_TS_DEWT_062012.nc | 26-Oct-2024 18:03 | 438614 | ||
| 44024_TS_DEWT_062013.nc | 26-Oct-2024 18:03 | 439152 | ||
| 44024_TS_DEWT_062014.nc | 26-Oct-2024 18:03 | 587271 | ||
| 44024_TS_DEWT_062015.nc | 26-Oct-2024 18:03 | 628383 | ||
| 44024_TS_DEWT_062016.nc | 26-Oct-2024 18:03 | 629753 | ||
| 44024_TS_DEWT_062017.nc | 26-Oct-2024 18:03 | 629689 | ||
| 44024_TS_DEWT_072004.nc | 26-Oct-2024 18:03 | 441810 | ||
| 44024_TS_DEWT_072005.nc | 26-Oct-2024 18:03 | 589187 | ||
| 44024_TS_DEWT_072006.nc | 26-Oct-2024 18:03 | 690051 | ||
| 44024_TS_DEWT_072007.nc | 26-Oct-2024 18:03 | 2848381 | ||
| 44024_TS_DEWT_072008.nc | 26-Oct-2024 18:03 | 444673 | ||
| 44024_TS_DEWT_072011.nc | 26-Oct-2024 18:03 | 2699857 | ||
| 44024_TS_DEWT_072012.nc | 26-Oct-2024 18:03 | 450814 | ||
| 44024_TS_DEWT_072013.nc | 26-Oct-2024 18:03 | 429614 | ||
| 44024_TS_DEWT_072014.nc | 26-Oct-2024 18:03 | 429612 | ||
| 44024_TS_DEWT_072015.nc | 26-Oct-2024 18:03 | 429618 | ||
| 44024_TS_DEWT_072016.nc | 26-Oct-2024 18:03 | 429612 | ||
| 44024_TS_DEWT_072017.nc | 26-Oct-2024 18:04 | 429610 | ||
| 44024_TS_DEWT_072021.nc | 16-Sep-2024 16:51 | 429617 | ||
| 44024_TS_DEWT_082004.nc | 26-Oct-2024 18:04 | 450382 | ||
| 44024_TS_DEWT_082005.nc | 26-Oct-2024 18:04 | 429612 | ||
| 44024_TS_DEWT_082006.nc | 26-Oct-2024 18:04 | 450322 | ||
| 44024_TS_DEWT_082007.nc | 26-Oct-2024 18:04 | 449675 | ||
| 44024_TS_DEWT_082011.nc | 26-Oct-2024 18:04 | 450259 | ||
| 44024_TS_DEWT_082012.nc | 26-Oct-2024 18:04 | 450018 | ||
| 44024_TS_DEWT_082013.nc | 26-Oct-2024 18:04 | 450514 | ||
| 44024_TS_DEWT_082014.nc | 26-Oct-2024 18:04 | 449525 | ||
| 44024_TS_DEWT_082015.nc | 26-Oct-2024 18:04 | 451253 | ||
| 44024_TS_DEWT_082016.nc | 26-Oct-2024 18:04 | 451670 | ||
| 44024_TS_DEWT_082021.nc | 16-Sep-2024 16:51 | 429812 | ||
| 44024_TS_DEWT_092004.nc | 26-Oct-2024 18:04 | 450028 | ||
| 44024_TS_DEWT_092005.nc | 26-Oct-2024 18:04 | 450019 | ||
| 44024_TS_DEWT_092006.nc | 26-Oct-2024 18:04 | 450221 | ||
| 44024_TS_DEWT_092007.nc | 26-Oct-2024 18:04 | 450275 | ||
| 44024_TS_DEWT_092011.nc | 26-Oct-2024 18:04 | 451224 | ||
| 44024_TS_DEWT_092012.nc | 26-Oct-2024 18:04 | 451522 | ||
| 44024_TS_DEWT_092013.nc | 26-Oct-2024 18:04 | 451131 | ||
| 44024_TS_DEWT_092014.nc | 26-Oct-2024 18:04 | 451492 | ||
| 44024_TS_DEWT_092015.nc | 26-Oct-2024 18:04 | 1257375 | ||
| 44024_TS_DEWT_092016.nc | 26-Oct-2024 18:04 | 1144095 | ||
| 44024_TS_DEWT_092021.nc | 16-Sep-2024 16:51 | 1222444 | ||
| 44024_TS_DEWT_102004.nc | 26-Oct-2024 18:04 | 1268539 | ||
| 44024_TS_DEWT_102005.nc | 26-Oct-2024 18:05 | 5111322 | ||
| 44024_TS_DEWT_102006.nc | 26-Oct-2024 18:05 | 428453 | ||
| 44024_TS_DEWT_102007.nc | 26-Oct-2024 18:05 | 428605 | ||
| 44024_TS_DEWT_102011.nc | 26-Oct-2024 18:05 | 428963 | ||
| 44024_TS_DEWT_102012.nc | 26-Oct-2024 18:05 | 428615 | ||
| 44024_TS_DEWT_102013.nc | 26-Oct-2024 18:05 | 428617 | ||
| 44024_TS_DEWT_102014.nc | 26-Oct-2024 18:05 | 428615 | ||
| 44024_TS_DEWT_102015.nc | 26-Oct-2024 18:05 | 448296 | ||
| 44024_TS_DEWT_102016.nc | 26-Oct-2024 18:05 | 428618 | ||
| 44024_TS_DEWT_102021.nc | 16-Sep-2024 16:51 | 447349 | ||
| 44024_TS_DEWT_112004.nc | 26-Oct-2024 18:05 | 447206 | ||
| 44024_TS_DEWT_112005.nc | 26-Oct-2024 18:05 | 445889 | ||
| 44024_TS_DEWT_112006.nc | 26-Oct-2024 18:05 | 447031 | ||
| 44024_TS_DEWT_112007.nc | 26-Oct-2024 18:05 | 448603 | ||
| 44024_TS_DEWT_112011.nc | 26-Oct-2024 18:05 | 447925 | ||
| 44024_TS_DEWT_112012.nc | 26-Oct-2024 18:05 | 449027 | ||
| 44024_TS_DEWT_112013.nc | 26-Oct-2024 18:05 | 447669 | ||
| 44024_TS_DEWT_112014.nc | 26-Oct-2024 18:05 | 428807 | ||
| 44024_TS_DEWT_112015.nc | 26-Oct-2024 18:05 | 447127 | ||
| 44024_TS_DEWT_112016.nc | 26-Oct-2024 18:05 | 447992 | ||
| 44024_TS_DEWT_112021.nc | 16-Sep-2024 16:51 | 448188 | ||
| 44024_TS_DEWT_122004.nc | 26-Oct-2024 18:05 | 447445 | ||
| 44024_TS_DEWT_122005.nc | 26-Oct-2024 18:06 | 447583 | ||
| 44024_TS_DEWT_122006.nc | 26-Oct-2024 18:06 | 448691 | ||
| 44024_TS_DEWT_122007.nc | 26-Oct-2024 18:06 | 446750 | ||
| 44024_TS_DEWT_122011.nc | 26-Oct-2024 18:06 | 448876 | ||
| 44024_TS_DEWT_122012.nc | 26-Oct-2024 18:06 | 971251 | ||
| 44024_TS_DEWT_122013.nc | 26-Oct-2024 18:06 | 993552 | ||
| 44024_TS_DEWT_122014.nc | 26-Oct-2024 18:06 | 918096 | ||
| 44024_TS_DEWT_122015.nc | 26-Oct-2024 18:06 | 1028450 | ||
| 44024_TS_DEWT_122016.nc | 26-Oct-2024 18:06 | 3451444 | ||
| 44024_TS_DEWT_122020.nc | 26-Oct-2024 18:06 | 2552756 | ||